Weather History for Wadesboro, NC

Change the Weather History Date:

Sunday, April 7, 2013

  Actual Average (KCLT) Record (KCLT)
Temperature  
Mean Temperature 54 °F 57 °F  
Max Temperature 74 °F 70 °F 89 °F (1929)
Min Temperature 35 °F 45 °F 25 °F (2007)
Degree Days  
Heating Degree Days 10 8  
Month to date heating degree days 64  
Since 1 July heating degree days 3196  
Cooling Degree Days 0 1  
Month to date cooling degree days 6  
Year to date cooling degree days 11  
Growing Degree Days 4 (Base 50)    
Moisture  
Dew Point 41 °F    
Average Humidity 59    
Maximum Humidity 94    
Minimum Humidity 26    
Precipitation  
Precipitation 0.00 in 0.11 in 1.74 in (2014)
Month to date precipitation 0.75  
Year to date precipitation 11.49  
Snow  
Snow 0.00 in 0.00 in 0.00 in ()
Month to date snowfall 0.1  
Since 1 July snowfall 4.4  
Snow Depth -    
Sea Level Pressure  
Sea Level Pressure 30.20 in    
Wind  
Wind Speed 3 mph (South)    
Max Wind Speed 9 mph    
Max Gust Speed -    
Visibility 10 miles    
Events      
T = Trace of Precipitation, MM = Missing Value Source: NWS Daily Summary

Daily Weather History Graph

Daily Weather History Graph

Search for Another Location

Airport:

Trip Planner

Search our weather history database for the weather conditions in past years. The results will help you decide how hot, cold, wet, or windy it might be!

Date:

Astronomy

Apr. 07, 2013 Rise Set
Actual Time 6:58 AM EDT 7:46 PM EDT
Civil Twilight 6:32 AM EDT 8:12 PM EDT
Nautical Twilight 6:02 AM EDT 8:42 PM EDT
Astronomical Twilight 5:31 AM EDT 9:14 PM EDT
Moon 5:09 AM EDT (4/7) 5:21 PM EDT (4/7)
Length of Visible Light 13h 39m
Length of Day
12h 48m
Waning Crescent, 8% of the Moon is Illuminated
Apr 7
Waning Crescent
Apr 10
New
Apr 18
First Quarter
Apr 25
Full
May 2
Last Quarter

Hourly Weather History & Observations

Time (EDT) Temp. Windchill Dew Point Humidity Pressure Visibility Wind Dir Wind Speed Gust Speed Precip Events Conditions
12:15 AM 54.1 °F - 34.3 °F 47% 30.25 in 10.0 mi SSE 5.8 mph - N/A   Clear
12:35 AM 53.1 °F - 36.5 °F 53% 30.25 in 10.0 mi South 8.1 mph - N/A   Clear
12:55 AM 52.7 °F - 37.6 °F 56% 30.25 in 10.0 mi SE 9.2 mph - N/A   Clear
1:15 AM 51.8 °F - 38.3 °F 60% 30.25 in 10.0 mi SSE 8.1 mph - N/A   Clear
1:35 AM 51.3 °F - 38.8 °F 63% 30.25 in 10.0 mi SSE 3.5 mph - N/A   Clear
1:55 AM 49.8 °F - 39.2 °F 67% 30.24 in 10.0 mi Calm Calm - N/A   Clear
2:15 AM 48.4 °F - 39.2 °F 71% 30.23 in 10.0 mi East 4.6 mph - N/A   Clear
2:35 AM 46.6 °F - 38.8 °F 74% 30.23 in 10.0 mi Calm Calm - N/A   Clear
2:55 AM 46.4 °F - 38.7 °F 74% 30.23 in 10.0 mi Calm Calm - N/A   Clear
3:15 AM 45.1 °F - 38.3 °F 77% 30.23 in 10.0 mi Calm Calm - N/A   Clear
3:35 AM 43.5 °F - 38.5 °F 82% 30.23 in 10.0 mi Calm Calm - N/A   Clear
3:55 AM 42.1 °F - 37.6 °F 84% 30.23 in 10.0 mi Calm Calm - N/A   Clear
4:15 AM 40.8 °F - 37.4 °F 88% 30.22 in 10.0 mi Calm Calm - N/A   Clear
4:35 AM 40.1 °F - 37.2 °F 89% 30.22 in 10.0 mi Calm Calm - N/A   Clear
4:55 AM 39.9 °F - 37.0 °F 89% 30.22 in 10.0 mi Calm Calm - N/A   Clear
5:15 AM 40.1 °F - 37.2 °F 89% 30.22 in 10.0 mi Calm Calm - N/A   Clear
5:35 AM 38.3 °F - 35.8 °F 91% 30.23 in 10.0 mi Calm Calm - N/A   Clear
5:55 AM 38.7 °F - 36.1 °F 91% 30.23 in 10.0 mi Calm Calm - N/A   Clear
6:15 AM 37.4 °F - 35.1 °F 91% 30.24 in 10.0 mi Calm Calm - N/A   Clear
6:35 AM 37.2 °F - 34.5 °F 90% 30.24 in 10.0 mi Calm Calm - N/A   Clear
6:55 AM 36.5 °F - 34.2 °F 91% 30.25 in 10.0 mi Calm Calm - N/A   Clear
7:15 AM 35.8 °F - 33.8 °F 92% 30.25 in 7.0 mi Calm Calm - N/A   Clear
7:35 AM 36.5 °F - 34.9 °F 94% 30.26 in 7.0 mi Calm Calm - N/A   Clear
7:55 AM 38.3 °F - 36.7 °F 94% 30.26 in 10.0 mi Calm Calm - N/A   Clear
8:15 AM 42.6 °F 40.9 °F 40.3 °F 91% 30.27 in 10.0 mi NNW 3.5 mph - N/A   Clear
8:35 AM 44.6 °F - 40.5 °F 85% 30.27 in 10.0 mi Calm Calm - N/A   Clear
8:55 AM 46.9 °F - 40.3 °F 78% 30.28 in 10.0 mi Calm Calm - N/A   Clear
9:15 AM 49.1 °F - 41.4 °F 75% 30.28 in 10.0 mi Calm Calm - N/A   Clear
9:35 AM 50.5 °F - 41.5 °F 71% 30.28 in 10.0 mi Calm Calm - N/A   Clear
9:55 AM 52.7 °F - 41.2 °F 65% 30.27 in 10.0 mi Calm Calm - N/A   Clear
10:15 AM 54.5 °F - 42.3 °F 63% 30.27 in 10.0 mi Calm Calm - N/A   Clear
10:35 AM 56.5 °F - 40.6 °F 55% 30.27 in 10.0 mi Calm Calm - N/A   Clear
10:55 AM 59.2 °F - 40.3 °F 50% 30.27 in 10.0 mi SSE 3.5 mph - N/A   Clear
11:15 AM 61.0 °F - 38.5 °F 43% 30.27 in 10.0 mi Calm Calm - N/A   Clear
11:35 AM 62.4 °F - 37.4 °F 40% 30.26 in 10.0 mi SE 3.5 mph - N/A   Clear
11:55 AM 63.1 °F - 37.2 °F 38% 30.26 in 10.0 mi Calm Calm - N/A   Clear
12:15 PM 64.8 °F - 37.4 °F 36% 30.25 in 10.0 mi Calm Calm - N/A   Clear
12:35 PM 66.6 °F - 38.1 °F 35% 30.24 in 10.0 mi West 4.6 mph - N/A   Clear
12:55 PM 67.5 °F - 39.2 °F 36% 30.23 in 10.0 mi SW 3.5 mph - N/A   Clear
1:15 PM 68.0 °F - 39.9 °F 36% 30.22 in 10.0 mi SSE 5.8 mph - N/A   Clear
1:35 PM 68.9 °F - 39.6 °F 34% 30.21 in 10.0 mi SSW 4.6 mph - N/A   Clear
1:55 PM 70.0 °F - 39.7 °F 33% 30.20 in 10.0 mi SSW 5.8 mph - N/A   Clear
2:15 PM 71.1 °F - 39.6 °F 32% 30.18 in 10.0 mi SSW 8.1 mph - N/A   Clear
2:35 PM 71.8 °F - 40.1 °F 32% 30.17 in 10.0 mi South 5.8 mph - N/A   Clear
2:55 PM 72.5 °F - 37.9 °F 28% 30.16 in 10.0 mi SSE 8.1 mph - N/A   Clear
3:15 PM 73.2 °F - 36.5 °F 26% 30.15 in 10.0 mi SSW 9.2 mph - N/A   Clear
3:35 PM 73.9 °F - 37.2 °F 26% 30.14 in 10.0 mi SSW 5.8 mph - N/A   Scattered Clouds
3:55 PM 74.3 °F - 38.8 °F 28% 30.13 in 10.0 mi SW 6.9 mph - N/A   Scattered Clouds
4:15 PM 73.9 °F - 38.5 °F 28% 30.13 in 10.0 mi SSW 8.1 mph - N/A   Clear
4:35 PM 73.9 °F - 37.4 °F 27% 30.12 in 10.0 mi SSW 5.8 mph - N/A   Clear
4:55 PM 73.2 °F - 38.7 °F 29% 30.11 in 10.0 mi SSW 8.1 mph - N/A   Scattered Clouds
5:15 PM 73.4 °F - 39.6 °F 29% 30.11 in 10.0 mi SW 6.9 mph - N/A   Scattered Clouds
5:35 PM 73.0 °F - 41.0 °F 31% 30.11 in 10.0 mi SSW 6.9 mph - N/A   Scattered Clouds
5:55 PM 72.7 °F - 41.2 °F 32% 30.11 in 10.0 mi SSW 5.8 mph - N/A   Clear
6:15 PM 72.5 °F - 42.1 °F 33% 30.11 in 10.0 mi SSW 5.8 mph - N/A   Scattered Clouds
6:35 PM 71.6 °F - 42.6 °F 35% 30.11 in 10.0 mi South 3.5 mph - N/A   Scattered Clouds
6:55 PM 70.9 °F - 43.5 °F 37% 30.11 in 10.0 mi Calm Calm - N/A   Scattered Clouds
7:15 PM 70.2 °F - 44.1 °F 39% 30.11 in 10.0 mi Calm Calm - N/A   Clear
7:35 PM 69.3 °F - 44.4 °F 41% 30.11 in 10.0 mi Calm Calm - N/A   Scattered Clouds
7:55 PM 65.8 °F - 46.9 °F 50% 30.12 in 10.0 mi Calm Calm - N/A   Mostly Cloudy
8:15 PM 63.9 °F - 49.1 °F 59% 30.12 in 10.0 mi Calm Calm - N/A   Mostly Cloudy
8:35 PM 63.0 °F - 49.1 °F 61% 30.13 in 10.0 mi Calm Calm - N/A   Scattered Clouds
8:55 PM 61.5 °F - 48.9 °F 63% 30.13 in 10.0 mi Calm Calm - N/A   Clear
9:15 PM 59.9 °F - 49.1 °F 67% 30.13 in 10.0 mi Calm Calm - N/A   Clear
9:35 PM 58.5 °F - 49.3 °F 72% 30.14 in 10.0 mi Calm Calm - N/A   Clear
9:55 PM 58.3 °F - 49.1 °F 71% 30.14 in 10.0 mi Calm Calm - N/A   Scattered Clouds
10:15 PM 58.8 °F - 49.3 °F 71% 30.14 in 10.0 mi South 3.5 mph - N/A   Mostly Cloudy
10:35 PM 64.8 °F - 49.5 °F 58% 30.14 in 10.0 mi South 4.6 mph - N/A   Overcast
10:55 PM 64.4 °F - 50.0 °F 59% 30.14 in 10.0 mi South 3.5 mph - N/A   Scattered Clouds
11:15 PM 61.0 °F - 50.4 °F 68% 30.14 in 10.0 mi SE 5.8 mph - N/A   Clear
11:35 PM 61.7 °F - 50.2 °F 66% 30.13 in 10.0 mi SSE 6.9 mph - N/A   Clear
11:55 PM 61.7 °F - 50.9 °F 68% 30.13 in 10.0 mi SSE 6.9 mph - N/A   Clear